This is the latest recevied weather packets stored in our database for station/object KY4GW. If no packets are shown the sender has not sent any weather packets the latest 10 day(s).
| Time | Temp. | Humidity | Pressure | Rain* | Wind** | Luminosity | Snow |
|---|---|---|---|---|---|---|---|
| 1777981543 | 16.11° C | 73% | 1013.8 hPa | 0 mm | - | 73 W/m² | - |
| 1777981239 | 15.56° C | 75% | 1013.8 hPa | 0 mm | - | 61 W/m² | - |
| 1777980936 | 15.56° C | 74% | 1013.8 hPa | 0 mm | - | 52 W/m² | - |
| 1777980632 | 15.56° C | 76% | 1014.1 hPa | 0 mm | - | 43 W/m² | - |
| 1777980328 | 15.56° C | 78% | 1014.1 hPa | 0 mm | - | 38 W/m² | - |
| 1777980027 | 15.56° C | 76% | 1014.1 hPa | 0 mm | - | 29 W/m² | - |
| 1777979726 | 15.56° C | 73% | 1013.8 hPa | 0 mm | - | 19 W/m² | - |
| 1777979423 | 15.56° C | 77% | 1013.8 hPa | 0 mm | - | 10 W/m² | - |
| 1777979119 | 15.56° C | 73% | 1013.8 hPa | 0 mm | - | 7 W/m² | - |
| 1777978816 | 15.56° C | 72% | 1013.1 hPa | 0 mm | - | 3 W/m² | - |
| 1777978513 | 15.56° C | 72% | 1013.1 hPa | 0 mm | - | 2 W/m² | - |
| 1777978209 | 15.56° C | 73% | 1013.1 hPa | 0 mm | - | 2 W/m² | - |
| 1777977906 | 15° C | 74% | 1013.1 hPa | 0 mm | - | 2 W/m² | - |
| 1777977603 | 15° C | 77% | 1013.1 hPa | 0 mm | - | 1 W/m² | - |
| 1777977300 | 15° C | 75% | 1013.1 hPa | 0 mm | - | 1 W/m² | - |
| 1777976997 | 14.44° C | 78% | 1012.8 hPa | 0 mm | - | 1 W/m² | - |
| 1777976694 | 14.44° C | 77% | 1012.8 hPa | 0 mm | - | 0 W/m² | - |
| 1777976392 | 14.44° C | 76% | 1012.8 hPa | 0 mm | - | 0 W/m² | - |
| 1777976090 | 14.44° C | 75% | 1012.4 hPa | 0 mm | - | 0 W/m² | - |
| 1777975786 | 15° C | 75% | 1012.4 hPa | 0 mm | - | 0 W/m² | - |
| 1777975483 | 15° C | 74% | 1012.4 hPa | 0 mm | - | 0 W/m² | - |
| 1777975179 | 15° C | 73% | 1012.4 hPa | 0 mm | - | 0 W/m² | - |
| 1777974876 | 15° C | 72% | 1012.4 hPa | 0 mm | - | 0 W/m² | - |
| 1777974572 | 15° C | 73% | 1012.4 hPa | 0 mm | - | 0 W/m² | - |
| 1777974269 | 15.56° C | 72% | 1012.4 hPa | 0 mm | - | 0 W/m² | - |
* Rain latest hour (hover to see other rain measurements)
** Current wind speed in m/s (hover to see current wind gust speed)